Flag for U.S.A. Weather past 2 weeks in Stockton, California, U.S.A.

Now
81 °F

Sunny.


Feels Like: 79 °F
Forecast: 48 / 85 °F
Wind: 5 mph from West

Location: Stockton Metropolitan Airport

Current Time: Apr 18, 2015 at 2:37:39 PM

Latest Report: Apr 18, 2015 at 1:55 PM


Visibility: 10 mi

Pressure: 29.94 "Hg

Humidity: 23%

Dew point: 40 °F

Location of StocktonLocation

Historic Weather in Stockton — Graph

°F

Stockton temperature yesterday

Maximum temperature yesterday: 85 °F (at 2:55 PM)
Minimum temperature yesterday: 47 °F (at 3:55 AM)
Average temperature yesterday: 67 °F

Past Weeks' High & Low Weather Summary

 TemperatureHumidityPressure
High85 °F (Apr 17, 2:55 PM)93% (Apr 7, 7:55 AM)30.32 "Hg (Apr 7, 7:55 AM)
Low37 °F (Apr 6, 6:55 AM)11% (Apr 14, 6:55 PM)29.80 "Hg (Apr 7, 5:55 AM)
Average59 °F51%30.01 "Hg
* Reported Apr 3 12:55 PM — Apr 18 12:55 PM, Stockton, Weather by CustomWeather, © 2015

Note: Actual official high and low records may vary slightly from our data, if they occured in-between our weather recording intervals... More about our weather records

Advertising

Stockton weather history for previous 24 hours

 ConditionsComfort  
Time TempWeatherWind HumidityBarometerVisibility
12:55 PM
Sat, Apr 18
79 °FSunny.5 mph24%29.97 "Hg10 mi
11:55 AM75 °FSunny.5 mph31%29.99 "Hg10 mi
10:55 AM71 °FSunny.5 mph34%30.02 "Hg10 mi
9:55 AM69 °FSunny.6 mph38%30.02 "Hg10 mi
8:55 AM62 °FSunny.3 mph56%30.02 "Hg10 mi
7:55 AM56 °FSunny.3 mph67%30.02 "Hg10 mi
6:55 AM51 °FClear.6 mph74%30.01 "Hg9 mi
5:55 AM50 °FClear.5 mph66%30.00 "Hg10 mi
4:55 AM51 °FClear.No wind56%29.99 "Hg10 mi
3:55 AM51 °FClear.5 mph59%29.99 "Hg10 mi
2:55 AM53 °FClear.No wind51%29.99 "Hg10 mi
1:55 AM59 °FClear.No wind38%30.00 "Hg10 mi
12:55 AM60 °FClear.3 mph39%30.00 "Hg10 mi
11:55 PM
Fri, Apr 17
64 °FClear.8 mph30%29.99 "Hg10 mi
10:55 PM62 °FClear.8 mph37%30.00 "Hg10 mi
9:55 PM66 °FClear.7 mph32%30.00 "Hg10 mi
8:55 PM67 °FClear.7 mph36%29.98 "Hg10 mi
7:55 PM70 °FSunny.9 mph39%29.96 "Hg10 mi
6:55 PM77 °FSunny.14 mph26%29.96 "Hg10 mi
5:55 PM82 °FSunny.10 mph20%29.96 "Hg10 mi
4:55 PM85 °FSunny.9 mph16%29.97 "Hg10 mi
3:55 PM85 °FSunny.7 mph14%29.98 "Hg10 mi
2:55 PM85 °FSunny.13 mph15%30.01 "Hg10 mi
Weather by CustomWeather, © 2015

See weather overviewHow to use our weather pages